Location: Newark
(33.6333°S, 78.8500°W)
Time: 12:10:20
(UTC+00:00)

Tiros 1 - Pass Details

Date: 19 October 2019
Orbit: 630 x 664 km, 48.4° (Epoch: 11 November)

Event Time Altitude Azimuth Distance (km) Brightness Sun altitude
Rises 02:24:10 0° 238° (WSW) 2,939 11.6 -32.8°
Reaches altitude 10° 02:26:34 10° 244° (WSW) 2,027 10.5 -33.2°
Enters shadow 02:28:31 23° 256° (WSW) 1,353 9.2 -33.5°
Maximum altitude 02:30:59 44° 315° (NW) 888 - -33.9°
Drops below altitude 10° 02:35:25 10° 27° (NNE) 2,022 - -34.5°
Sets 02:37:49 0° 33° (NNE) 2,930 - -34.9°
